Moffett NAS, CA

8:43 AM PDT on March 30, 2017 (GMT -0700)
Moffett Federal Air Field

Weather History for KNUQ - November, 2007

Change the Weather History Date:

Thursday, November 22, 2007

  Actual Average Record
Temperature  
Mean Temperature 50 °F 54 °F  
Max Temperature 64 °F 63 °F 75 °F (1959)
Min Temperature 37 °F 46 °F 33 °F (1956)
Degree Days  
Heating Degree Days 14    
Month to date heating degree days  
Since 1 July heating degree days  
Cooling Degree Days 0    
Month to date cooling degree days  
Year to date cooling degree days  
Moisture  
Dew Point 32 °F    
Average Humidity 52    
Maximum Humidity 79    
Minimum Humidity 25    
Precipitation  
Precipitation 0.00 in 0.06 in 0.48 in (1946)
Month to date precipitation 1.17  
Year to date precipitation 11.65  
Sea Level Pressure  
Sea Level Pressure 30.09 in    
Wind  
Wind Speed 1 mph (WNW)    
Max Wind Speed 9 mph    
Max Gust Speed -    
Visibility 10 miles    
Events      
T = Trace of Precipitation, MM = Missing Value Source: NWS Daily Summary

Daily Weather History Graph

Daily Weather History Graph

Search for Another Location

Airport or City:

Trip Planner

Search our weather history database for the weather conditions in past years. The results will help you decide how hot, cold, wet, or windy it might be!

Date:

Astronomy

Nov. 22, 2007 Rise Set
Actual Time 6:54 AM PST 4:53 PM PST
Civil Twilight 6:26 AM PST 5:21 PM PST
Nautical Twilight 5:54 AM PST 5:53 PM PST
Astronomical Twilight 5:23 AM PST 6:24 PM PST
Moon 3:16 PM PST (11/22) 4:37 AM PST (11/22)
Length of Visible Light 10h 55m
Length of Day
9h 58m
Waxing Gibbous, 95% of the Moon is Illuminated
Nov 22
Waxing Gibbous
Nov 24
Full
Dec 1
Last Quarter
Dec 9
New
Dec 17
First Quarter

Hourly Weather History & Observations

Time (PST) Temp. Windchill Dew Point Humidity Pressure Visibility Wind Dir Wind Speed Gust Speed Precip Events Conditions
12:56 AM 44.1 °F - 32.0 °F 63% 30.11 in 10.0 mi Calm Calm - N/A   Clear
1:56 AM 44.1 °F - 33.1 °F 65% 30.11 in 10.0 mi Calm Calm - N/A   Clear
2:56 AM 42.1 °F - 30.9 °F 65% 30.09 in 10.0 mi Calm Calm - N/A   Clear
3:56 AM 42.1 °F - 32.0 °F 67% 30.09 in 10.0 mi Calm Calm - N/A   Clear
4:56 AM 42.1 °F 40.2 °F 33.1 °F 70% 30.10 in 10.0 mi SW 3.5 mph - N/A   Clear
5:56 AM 39.0 °F - 30.9 °F 73% 30.10 in 10.0 mi Calm Calm - N/A   Clear
6:56 AM 37.9 °F - 32.0 °F 79% 30.12 in 10.0 mi Calm Calm - N/A   Clear
7:56 AM 43.0 °F - 35.1 °F 74% 30.14 in 10.0 mi Calm Calm - N/A   Clear
8:56 AM 48.9 °F - 37.0 °F 64% 30.14 in 10.0 mi WSW 3.5 mph - N/A   Clear
9:56 AM 55.0 °F - 34.0 °F 45% 30.13 in 10.0 mi Calm Calm - N/A   Clear
10:56 AM 57.9 °F - 32.0 °F 37% 30.13 in 10.0 mi WNW 5.8 mph - N/A   Clear
11:56 AM 62.1 °F - 28.0 °F 28% 30.10 in 10.0 mi North 9.2 mph - N/A   Clear
12:56 PM 64.0 °F - 27.0 °F 25% 30.07 in 10.0 mi NW 4.6 mph - N/A   Clear
1:56 PM 64.0 °F - 28.0 °F 26% 30.05 in 10.0 mi NW 6.9 mph - N/A   Clear
2:56 PM 64.0 °F - 32.0 °F 30% 30.04 in 10.0 mi NW 8.1 mph - N/A   Clear
3:56 PM 64.0 °F - 30.9 °F 29% 30.04 in 10.0 mi NW 3.5 mph - N/A   Clear
4:56 PM 61.0 °F - 30.9 °F 32% 30.05 in 10.0 mi Calm Calm - N/A   Clear
5:56 PM 57.0 °F - 33.1 °F 40% 30.06 in 10.0 mi Calm Calm - N/A   Clear
6:56 PM 54.0 °F - 34.0 °F 47% 30.07 in 9.0 mi West 3.5 mph - N/A   Clear
7:56 PM 51.1 °F - 33.1 °F 50% 30.07 in 10.0 mi Calm Calm - N/A   Clear
8:56 PM 50.0 °F - 33.1 °F 52% 30.07 in 10.0 mi Calm Calm - N/A   Clear
9:56 PM 48.0 °F - 33.1 °F 56% 30.08 in 10.0 mi Calm Calm - N/A   Clear
10:56 PM 46.9 °F - 33.1 °F 59% 30.08 in 10.0 mi Calm Calm - N/A   Clear
11:56 PM 46.0 °F - 34.0 °F 63% 30.10 in 10.0 mi Calm Calm - N/A   Clear